Flag for Norway Weather past 2 weeks in Sarpsborg, Norway

Now
36 °F

Sunny.


Feels Like: 28 °F
Forecast: 30 / 36 °F
Wind: 10 mph from Southwest

Location: Rygge

Current Time: Dec 19, 2014 at 11:07:18 AM

Latest Report: Dec 19, 2014 at 10:20 AM


Visibility: 10 mi

Pressure: 29.15 "Hg

Humidity: 87%

Dew point: 32 °F

Location of SarpsborgLocation

Historic Weather in Sarpsborg — Graph

°F

Sarpsborg temperature yesterday

Maximum temperature yesterday: 41 °F (at 7:20 PM)
Minimum temperature yesterday: 30 °F (at 12:20 AM)
Average temperature yesterday: 35 °F

Past Weeks' High & Low Weather Summary

 TemperatureHumidityPressure
High46 °F (Dec 7, 10:50 AM)100% (Dec 4, 9:20 AM)30.21 "Hg (Dec 4, 9:20 AM)
Low21 °F (Dec 17, 8:50 AM)60% (Dec 16, 12:50 AM)29.00 "Hg (Dec 12, 5:20 PM)
Average35 °F90%29.48 "Hg
* Reported Dec 4 9:20 AM — Dec 19 9:50 AM, Sarpsborg, Weather by CustomWeather, © 2014

Note: Actual official high and low records may vary slightly from our data, if they occured in-between our weather recording intervals... More about our weather records

Advertising

Sarpsborg weather history for previous 24 hours

 ConditionsComfort  
Time TempWeatherWind HumidityBarometerVisibility
9:50 AM
Dec 19
36 °FSunny.13 mph87%29.15 "Hg10 mi
9:20 AM36 °FSunny.13 mph87%29.15 "Hg10 mi
8:50 AM36 °FClear.12 mph93%29.15 "Hg10 mi
8:20 AM36 °FClear.12 mph93%29.12 "Hg10 mi
7:50 AM36 °FClear.10 mph93%29.12 "Hg10 mi
7:20 AM36 °FClear.7 mph93%29.12 "Hg10 mi
6:50 AM36 °FPassing clouds.7 mph93%29.12 "HgN/A
6:20 AM36 °FClear.9 mph93%29.12 "Hg10 mi
5:50 AM36 °FChilly.10 mph93%29.12 "HgN/A
5:20 AM36 °FChilly.9 mph93%29.12 "HgN/A
4:50 AM36 °FChilly.10 mph93%29.12 "HgN/A
4:20 AM36 °FChilly.9 mph93%29.12 "HgN/A
3:50 AM36 °FChilly.12 mph93%29.12 "HgN/A
3:20 AM36 °FChilly.7 mph93%29.12 "HgN/A
2:50 AM34 °FChilly.9 mph100%29.12 "HgN/A
2:20 AM34 °FPassing clouds.5 mph100%29.12 "Hg1 mi
1:50 AM36 °FChilly.3 mph100%29.12 "HgN/A
1:20 AM37 °FPassing clouds.6 mph93%29.12 "HgN/A
12:50 AM37 °FOvercast.7 mph100%29.12 "HgN/A
12:20 AM39 °FOvercast.6 mph93%29.12 "HgN/A
11:50 PM
Dec 18
39 °FLow clouds.5 mph100%29.12 "HgN/A
11:20 PM39 °FOvercast.5 mph100%29.12 "HgN/A
10:50 PM39 °FPartly cloudy.6 mph100%29.12 "Hg6 mi
10:20 PM39 °FPassing clouds.3 mph100%29.12 "HgN/A
9:50 PM41 °FPassing clouds.3 mph93%29.15 "HgN/A
9:20 PM39 °FPassing clouds.5 mph100%29.15 "HgN/A
8:50 PM39 °FPassing clouds.5 mph100%29.15 "HgN/A
8:20 PM39 °FPartly cloudy.7 mph100%29.18 "HgN/A
7:50 PM41 °FPartly cloudy.8 mph93%29.18 "Hg4 mi
7:20 PM41 °FPassing clouds.9 mph93%29.18 "Hg4 mi
6:50 PM39 °FPassing clouds.7 mph100%29.18 "Hg4 mi
6:20 PM39 °FPassing clouds.6 mph100%29.21 "Hg4 mi
5:50 PM37 °FPartly cloudy.3 mph100%29.21 "Hg3 mi
5:20 PM39 °FPassing clouds.3 mph93%29.21 "Hg3 mi
4:50 PM37 °FFog.6 mph100%29.21 "Hg2 mi
4:20 PM39 °FFog.2 mph100%29.24 "Hg2 mi
3:50 PM37 °FPassing clouds.6 mph100%29.24 "Hg2 mi
3:20 PM36 °FPassing clouds.2 mph100%29.24 "Hg5 mi
2:50 PM36 °FSunny.3 mph100%29.24 "Hg10 mi
2:20 PM36 °FSunny.5 mph93%29.24 "Hg10 mi
1:50 PM36 °FSunny.6 mph93%29.27 "Hg10 mi
1:20 PM34 °FSunny.7 mph100%29.27 "Hg10 mi
12:50 PM34 °FSunny.7 mph100%29.30 "Hg10 mi
12:20 PM34 °FPassing clouds.7 mph100%29.30 "HgN/A
11:50 AM34 °FSunny.7 mph100%29.30 "Hg10 mi
11:20 AM34 °FPartly sunny.5 mph100%29.30 "HgN/A
Weather by CustomWeather, © 2014

See weather overviewHow to use our weather pages